カタログに戻る

FENGYUN 1C DEB

LostSSO
NORAD 36177·DEBRIS·🇨🇳 China

打ち上げ May 10, 1999 から Taiyuan Satellite Launch Center

Loading…

次のパス (今後24時間)

TLE

古いSource: Space-Track

元期: Aug 5, 2026, 08:46 UTC

1 36177U 99025DTA 26217.36543295  .00001005  00000-0  49182-3 0  9997
2 36177  98.6101 252.7759 0038045 247.0240 112.6921 14.19726825273714

AllMySatでFENGYUN 1C DEBをリアルタイム追跡

Download on the App Store